Hourly Data Report for October 15, 2013

All times are specified in Local Standard Time (LST). Add 1 hour to adjust for Daylight Saving Time where and when it is observed.

SAINT JOHN A
NEW BRUNSWICK

45°18'58.000" N
65°53'24.000" W
108.80 m
8104901
71609
YSJ

Download Data

Hourly Data (October 2013)
Hourly Data Report for October 15, 2013
Temp Definition
°C
Dew Point Temp Definition
°C
Rel Hum Definition
%
Wind Dir Definition
10's deg

Wind Spd Definition
km/h
Visibility Definition
km
Stn Press Definition
kPa
Hmdx Definition


Wind Chill Definition


Weather Definition


TIME
00:00 Legend Double Dagger 10.2 9.9 98 20 10 24.1 101.06     LegendNANA
01:00 Legend Double Dagger 10.3 9.7 96 22 11 24.1 101.03     LegendNANA
02:00 Legend Double Dagger 10.3 9.5 95 23 6 24.1 101.03     Cloudy
03:00 Legend Double Dagger 10.0 9.4 96 18 6 24.1 100.98     LegendNANA
04:00 Legend Double Dagger 10.2 9.4 95 27 3 24.1 101.01     LegendNANA
05:00 Legend Double Dagger 10.5 9.7 95 31 6 24.1 101.04     Cloudy
06:00 Legend Double Dagger 10.4 9.8 96 31 1 24.1 101.08     LegendNANA
07:00 Legend Double Dagger 10.7 10.3 97 6 2 19.3 101.07     LegendNANA
08:00 Legend Double Dagger 11.8 10.9 94 31 11 19.3 101.12     Cloudy
09:00 Legend Double Dagger 12.9 11.3 90 34 15 19.3 101.16     LegendNANA
10:00 Legend Double Dagger 13.9 10.5 80 2 13 24.1 101.15     LegendNANA
11:00 Legend Double Dagger 14.5 10.0 74 1 12 24.1 101.14     Mostly Cloudy
12:00 Legend Double Dagger 15.6 9.3 66 3 9 24.1 101.12     LegendNANA
13:00 Legend Double Dagger 17.3 9.1 58 35 9 24.1 101.05     LegendNANA
14:00 Legend Double Dagger 17.5 8.5 55 27 6 24.1 101.05     Mostly Cloudy
15:00 Legend Double Dagger 16.7 9.9 64 27 3 24.1 101.03     LegendNANA
16:00 Legend Double Dagger 16.5 10.0 65 23 12 24.1 101.04     LegendNANA
17:00 Legend Double Dagger 13.6 9.1 74 19 16 24.1 101.04     Mostly Cloudy
18:00 Legend Double Dagger 9.9 8.2 89 20 6 24.1 101.08     LegendNANA
19:00 Legend Double Dagger 6.7 6.0 95 4 1 24.1 101.12     LegendNANA
20:00 Legend Double Dagger 6.5 6.2 98 5 4 24.1 101.17     Mostly Cloudy
21:00 Legend Double Dagger 7.7 7.1 96 7 4 24.1 101.19     LegendNANA
22:00 Legend Double Dagger 8.8 6.6 86 10 13 24.1 101.20     LegendNANA
23:00 Legend Double Dagger 8.5 6.0 84 9 14 24.1 101.19     Mainly Clear

Notes on Data Quality.

Legend

  • E = Estimated
  • M = Missing
  • NA = Not Available
  • ‡ = Partner data that is not subject to review by the National Climate Archives
Date modified: